User: anonymous   Login
Location: Unspecified
(0.0000°N, 0.0000°E)
Time: 11:02:34
(UTC+00:00)
Language:

STARLINK-3726 - Orbit

View from above orbital plane
View from above orbital plane
View from above satellite
View from above satellite

Ground track
Ground track

The orbit is defined by the following mean orbital elements,

1 52122U          26145.16309007 +.00000000 +00000-0 +42068-4 0 00003
2 52122  53.2124  95.8187 0001423  85.2388 274.8766 15.08834856    01
Epoch (UTC): 25 May 2026 03:54:50
Eccentricity: 0.0001423
inclination: 53.2124°
perigee height: 539 km
apogee height: 541 km
right ascension of ascending node: 95.8187°
argument of perigee: 85.2388°
revolutions per day: 15.08834856
mean anomaly at epoch: 274.8766°

The dashed part of the orbit path shows where the satellite is in the earth's shadow,  

DLR